This demonstration page uses our WeatherBlox Daily Observations layout. Learn more.

Left ArrowRight Arrow

34.74481, -87.66753

Hourly Observations for August 25, 2015

Temp ( °F °C ) Dew Point ( °F °C ) Humidity (%) Winds ( mph kmh ) Pressure ( in mb ) Visibility ( mi km ) Precip ( " mm )
12:53 am 00:53 Clear 66 18.9 58 14.4 75 75 N 6 9 30.04 1017 10 16 0.00 0.00
1:53 am 01:53 Clear 65 18.3 57 13.9 76 76 N 5 7 30.04 1017 10 16 0.00 0.00
2:53 am 02:53 Clear 63 17.2 56 13.3 78 78 N 5 7 30.04 1017 10 16 0.00 0.00
3:53 am 03:53 Clear 63 17.2 56 13.3 78 78 Calm 30.04 1017 10 16 0.00 0.00
4:53 am 04:53 Clear 61 16.1 55 12.8 81 81 NW 3 6 30.04 1017 10 16 0.00 0.00
5:53 am 05:53 Clear 58 14.4 54 12.2 87 87 Calm 30.06 1018 10 16 0.00 0.00
6:53 am 06:53 Sunny 61 16.1 55 12.8 81 81 Calm 30.07 1018 10 16 0.00 0.00
7:53 am 07:53 Sunny 68 20 58 14.4 70 70 Calm 30.08 1019 10 16 0.00 0.00
8:53 am 08:53 Sunny 72 22.2 58 14.4 61 61 N 6 9 30.09 1019 10 16 0.00 0.00
9:53 am 09:53 Sunny 74 23.3 54 12.2 50 50 VRB 7 11 30.09 1019 10 16 0.00 0.00
10:53 am 10:53 Sunny 76 24.4 54 12.2 47 47 N 8 13 30.10 1019 10 16 0.00 0.00
11:53 am 11:53 Sunny 78 25.6 54 12.2 43 43 N 5 7 30.08 1019 10 16 0.00 0.00
12:53 pm 12:53 Sunny 80 26.7 56 13.3 44 44 NNW 8 13 30.06 1018 10 16 0.00 0.00
1:53 pm 13:53 Sunny 82 27.8 55 12.8 40 40 NNW 10 17 30.05 1018 10 16 0.00 0.00
2:53 pm 14:53 Sunny 82 27.8 56 13.3 41 41 NW 10 17 30.04 1017 10 16 0.00 0.00
3:53 pm 15:53 Sunny 81 27.2 53 11.7 38 38 N 10 17 30.02 1017 10 16 0.00 0.00
4:53 pm 16:53 Sunny 81 27.2 54 12.2 39 39 NW 10 17 30.01 1016 10 16 0.00 0.00
5:53 pm 17:53 Sunny 79 26.1 54 12.2 42 42 N 8 13 30.01 1016 10 16 0.00 0.00
6:53 pm 18:53 Sunny 75 23.9 54 12.2 48 48 N 3 6 30.01 1016 10 16 0.00 0.00
7:53 pm 19:53 Clear 71 21.7 55 12.8 57 57 NNW 5 7 30.01 1016 10 16 0.00 0.00
8:53 pm 20:53 Clear 69 20.6 55 12.8 61 61 N 5 7 30.02 1017 10 16 0.00 0.00
9:53 pm 21:53 Clear 68 20 54 12.2 61 61 N 5 7 30.04 1017 10 16 0.00 0.00
10:53 pm 22:53 Clear 67 19.4 55 12.8 66 66 N 6 9 30.06 1018 10 16 0.00 0.00
11:53 pm 23:53 Clear 66 18.9 55 12.8 68 68 Calm 30.06 1018 10 16 0.00 0.00

Powered by AerisWeather